Weather History for Baudette, MN

Change the Weather History Date:

Monday, October 17, 2011

  Actual Average Record
Temperature  
Mean Temperature 41 °F -  
Max Temperature 44 °F 50 °F 83 °F (1945)
Min Temperature 39 °F 33 °F 9 °F (1952)
Degree Days  
Heating Degree Days 24    
Moisture  
Dew Point 33 °F    
Average Humidity 71    
Maximum Humidity 83    
Minimum Humidity 53    
Precipitation  
Precipitation 0.04 in - - ()
Sea Level Pressure  
Sea Level Pressure 29.79 in    
Wind  
Wind Speed 11 mph (NW)    
Max Wind Speed 21 mph    
Max Gust Speed 28 mph    
Visibility 10 miles    
Events Rain    
Averages and records for this station are not official NWS values.
T = Trace of Precipitation, MM = Missing Value Source: NWS Daily Summary

Daily Weather History Graph

Daily Weather History Graph

Search for Another Location

Airport:

Trip Planner

Search our weather history database for the weather conditions in past years. The results will help you decide how hot, cold, wet, or windy it might be!

Date:

Astronomy

Oct. 17, 2011 Rise Set
Actual Time 7:41 AM CDT 6:25 PM CDT
Civil Twilight 7:09 AM CDT 6:57 PM CDT
Nautical Twilight 6:32 AM CDT 7:33 PM CDT
Astronomical Twilight 5:56 AM CDT 8:10 PM CDT
Moon 9:46 PM CDT (10/17) 1:09 PM CDT (10/17)
Length of Visible Light 11h 47m
Length of Day
10h 44m
Waning Gibbous, 74% of the Moon is Illuminated
Oct 17
Waning Gibbous
Oct 19
Last Quarter
Oct 26
New
Nov 2
First Quarter
Nov 10
Full

Hourly Weather History & Observations

Time (CDT) Temp. Windchill Dew Point Humidity Pressure Visibility Wind Dir Wind Speed Gust Speed Precip Events Conditions
12:53 AM 42.1 °F 38.4 °F 26.1 °F 53% 29.66 in 10.0 mi Variable 5.8 mph - N/A   Clear
1:53 AM 42.1 °F 36.6 °F 27.0 °F 55% 29.66 in 10.0 mi West 9.2 mph - N/A   Clear
2:53 AM 43.0 °F 36.8 °F 27.0 °F 53% 29.67 in 10.0 mi WNW 11.5 mph 23.0 mph N/A   Clear
3:53 AM 43.0 °F 37.2 °F 28.0 °F 56% 29.66 in 10.0 mi WNW 10.4 mph 20.7 mph N/A   Clear
4:53 AM 42.8 °F 38.0 °F 28.4 °F 57% 29.64 in 10.0 mi WNW 8.1 mph 18.4 mph N/A   Clear
5:53 AM 42.1 °F 37.7 °F 28.9 °F 60% 29.67 in 10.0 mi Variable 6.9 mph - N/A   Clear
6:53 AM 41.0 °F 37.1 °F 28.9 °F 62% 29.68 in 10.0 mi Variable 5.8 mph - N/A   Clear
7:53 AM 39.9 °F 34.5 °F 28.9 °F 65% 29.69 in 10.0 mi WNW 8.1 mph - N/A   Clear
8:53 AM 39.9 °F 33.9 °F 28.9 °F 65% 29.71 in 10.0 mi WNW 9.2 mph 18.4 mph N/A   Partly Cloudy
9:53 AM 41.0 °F 35.8 °F 30.0 °F 65% 29.73 in 10.0 mi WNW 8.1 mph 20.7 mph N/A   Overcast
10:53 AM 43.0 °F 35.7 °F 30.0 °F 60% 29.75 in 10.0 mi WNW 15.0 mph 24.2 mph N/A   Overcast
11:49 AM 42.8 °F 36.2 °F 30.2 °F 61% 29.73 in 10.0 mi WNW 12.7 mph 23.0 mph N/A   Overcast
11:53 AM 43.0 °F 36.4 °F 30.9 °F 62% 29.77 in 10.0 mi WNW 12.7 mph 21.9 mph N/A   Overcast
12:53 PM 43.0 °F 36.8 °F 32.0 °F 65% 29.78 in 10.0 mi WNW 11.5 mph 21.9 mph N/A   Overcast
1:53 PM 42.1 °F 35.7 °F 34.0 °F 73% 29.80 in 10.0 mi NW 11.5 mph 21.9 mph 0.00 in Rain Light Rain
2:22 PM 42.8 °F 36.6 °F 35.6 °F 76% 29.77 in 10.0 mi WNW 11.5 mph 20.7 mph 0.00 in Rain Light Rain
2:53 PM 43.0 °F 36.0 °F 34.0 °F 71% 29.81 in 10.0 mi NW 13.8 mph 21.9 mph 0.00 in Rain Light Rain
3:01 PM 42.8 °F 34.8 °F 33.8 °F 70% 29.78 in 10.0 mi NW 17.3 mph 23.0 mph 0.00 in Rain Light Rain
3:29 PM 42.8 °F 36.2 °F 35.6 °F 76% 29.78 in 10.0 mi NW 12.7 mph 23.0 mph 0.00 in Rain Light Rain
3:53 PM 42.1 °F 36.1 °F 35.1 °F 76% 29.82 in 10.0 mi NW 10.4 mph 19.6 mph 0.00 in Rain Light Rain
4:49 PM 41.0 °F 35.2 °F 35.6 °F 81% 29.81 in 10.0 mi WNW 9.2 mph 19.6 mph 0.01 in Rain Light Rain
4:53 PM 41.0 °F 34.7 °F 35.1 °F 79% 29.84 in 10.0 mi NW 10.4 mph 19.6 mph 0.01 in Rain Light Rain
5:02 PM 41.0 °F 33.9 °F 35.6 °F 81% 29.81 in 10.0 mi NW 12.7 mph 18.4 mph 0.00 in Rain Light Rain
5:35 PM 41.0 °F 36.4 °F 35.6 °F 81% 29.82 in 10.0 mi WNW 6.9 mph - 0.01 in Rain Light Rain
5:53 PM 39.9 °F 33.9 °F 35.1 °F 83% 29.86 in 9.0 mi WNW 9.2 mph 19.6 mph 0.01 in Rain Light Rain
6:53 PM 41.0 °F 33.9 °F 33.8 °F 76% 29.84 in 10.0 mi NW 12.7 mph 19.6 mph N/A Rain Light Rain
7:53 PM 41.0 °F 32.8 °F 35.1 °F 79% 29.89 in 10.0 mi NW 16.1 mph 25.3 mph 0.01 in Rain Light Rain
8:05 PM 41.0 °F 32.5 °F 35.6 °F 81% 29.86 in 10.0 mi NW 17.3 mph 23.0 mph 0.00 in Rain Light Rain
8:30 PM 41.0 °F 32.2 °F 35.6 °F 81% 29.86 in 9.0 mi NW 18.4 mph 26.5 mph 0.01 in Rain Light Rain
8:51 PM 41.0 °F 32.5 °F 35.6 °F 81% 29.86 in 10.0 mi NNW 17.3 mph 27.6 mph 0.01 in Rain Light Rain
8:53 PM 41.0 °F 32.8 °F 35.1 °F 79% 29.89 in 10.0 mi NNW 16.1 mph 27.6 mph 0.01 in Rain Light Rain
9:12 PM 41.0 °F 33.1 °F 35.6 °F 81% 29.86 in 10.0 mi NW 15.0 mph 25.3 mph 0.00 in Rain Light Rain
9:53 PM 41.0 °F 32.2 °F 34.0 °F 76% 29.90 in 10.0 mi NNW 18.4 mph 25.3 mph 0.00 in Rain Light Rain
10:29 PM 39.2 °F 29.6 °F 33.8 °F 81% 29.87 in 10.0 mi NNW 19.6 mph 26.5 mph 0.00 in Rain Light Rain
10:53 PM 39.9 °F 31.4 °F 34.0 °F 79% 29.91 in 10.0 mi NNW 16.1 mph 25.3 mph 0.00 in   Overcast
11:53 PM 39.9 °F 30.2 °F 33.1 °F 77% 29.91 in 10.0 mi NW 20.7 mph 25.3 mph 0.00 in   Overcast